2021-006EQ (47612 NORAD) Tracking and Keplerian Element Data

This shows tracking and keplerian element data for the satellite.

Feedback or suggestion? Click here.




ElementValue
Catalog47612
Name2021-006EQ
Epoch Orbit452
Epoch Day52.52576009
Epoch Year2021
RAAN115.7436
Inclination97.5092
Eccentricity0.0012615
Argument of Perigee144.9364
Mean Anonmoly215.2699
Mean Motion15.12329781
Decay Rate8.81E-06
L11 47612U 21006EQ 21052.52576009 .00000881 00000-0 54502-4 0 9990
L22 47612 97.5092 115.7436 0012615 144.9364 215.2699 15.12329781 4521

Live tracking and technical data element details for 2021-006EQ (NORAD 47612). 2021-006EQ can be tracked NOW for your location showing map with azimuth and elevation plus other details from your city location.

Track the satellite on the map from your city or location and see movement details for azimuth, elevation, latitude, longitude, range, height, and movement on the map or in text.







IsCatalogInMostPopularTable: catalog: 47612, numindb: 4
Update: records affected: 1



GetName: 47612 2021-006EQ

Hit Count: updated at: Mon, 01 Mar 2021 17:11:06 GMT